本田-ムルコス-パイドゥシャーコヴァー彗星

45P/Honda-Mrkos-Pajdusakova (2016)

English version
Home page
Updated on February 14, 2017

---------------------------------------------------------------------

・ プロフィール

・ 写真集

・ 軌道要素

Epoch 2017 Jan. 7.0 TT = JDT 2457760.5
T 2016 Dec. 31.26665 TT                                 MPCW
q   0.5325552            (2000.0)            P               Q
n   0.18726025     Peri.  326.26196     +0.56818380     -0.81955996
a   3.0257913      Node    89.00802     +0.77042252     +0.49815264
e   0.8239947      Incl.    4.24931     +0.28916485     +0.28313497
P   5.26
From 500 observations 2016 Nov. 6-2017 Feb. 5, mean residual 0".8.

・ 星図

・ 光度変化

        m1 = 14.2 + 5 logΔ + 23.0 log r  [ ,0]  (              〜2016年12月31日)
        m1 = 12.0 + 5 logΔ + 15.0 log r  [0, ]  (2016年12月31日〜              )

---------------------------------------------------------------------

軌道要素はM.P.E.C. 2017-C71に掲載されたものです。
星図はステラナビゲータ Ver.8 (アストロアーツ) で作成したものです。
光度グラフはComet for Windowsで作成したものです。

---------------------------------------------------------------------

Copyright(C) Seiichi Yoshida (comet@aerith.net). All rights reserved.